Regional Weather Roundup
Issued by NWS Kansas City/Pleasant Hill, MO

Home | Current Version | Previous Version | Graphics & Text | Print | Product List | Glossary Off
Versions: 1 2 3 4 5 6 7 8 9 10 11 12 13 14 15 16 17 18 19 20 21 22 23 24 25 26 27 28 29 30 31 32 33 34 35 36 37 38 39 40 41 42 43 44 45 46 47 48 49 50

000
ASUS43 KEAX 210504
RWREAX

WEATHER ROUNDUP FOR EASTERN KANSAS AND NORTHWEST MISSOURI
NATIONAL WEATHER SERVICE KANSAS CITY/PLEASANT HILL MO
1200 AM CDT THU AUG 21 2014

KSZ040-057-103>105-MOZ028-029-037-043-210600-
...KANSAS CITY METROPOLITAN AREA...

CITY           SKY/WX    TMP DP  RH WIND       PRES   REMARKS
K.C. INTL      CLEAR     81  68  64 S14       29.90R
K.C. DOWNTOWN  CLEAR     84  67  56 S14       29.89R
LEES SUMMIT    CLEAR     80  66  62 S10       29.92R
OLATHE - IXD   CLEAR     79  67  66 S12       29.91R
OLATHE - OJC   CLEAR     77  67  71 S10       29.91R
LAWRENCE       CLEAR     84  68  58 S10       29.89R

$$

MOZ001>008-011>017-020>025-030>033-038>040-044>046-053-054-210600-
...NORTHERN AND CENTRAL MISSOURI...

CITY           SKY/WX    TMP DP  RH WIND       PRES   REMARKS
ST. JOSEPH     CLEAR     80  69  69 S10       29.87R
MOSBY          CLEAR     79  68  69 SE3       29.89R
WHITEMAN AFB   CLEAR     75  64  67 S9        29.93R
CLINTON        CLEAR     79  66  65 CALM      29.94S
SEDALIA        CLEAR     80  66  62 S12       29.95R
WARSAW         NOT AVBL
MARSHALL       PTCLDY    77  73  88 SE5       29.94R
CHILLICOTHE      N/A     80  71  74 S5        29.91R
MOBERLY        CLEAR     75  70  83 S7        29.95R
KIRKSVILLE     CLEAR     78  72  81 S8        29.92R

$$

MOZ041-047>049-056>058-063>065-088>090-097-210600-
...EASTERN AND SOUTHERN MISSOURI...

CITY           SKY/WX    TMP DP  RH WIND       PRES   REMARKS
ST. LOUIS INTL PTCLDY    76  72  87 E6        29.96F
SPIRIT OF STL  PTCLDY    72  71  97 CALM      29.95F
COLUMBIA       CLEAR     73  71  93 SE8       29.96R
JEFFERSON CITY CLEAR     74  71  91 SE3       29.94S
MEXICO         CLEAR    N/A N/A N/A S9        29.95R
ROLLA          CLEAR     75  65  70 S9        29.98R
LEBANON        CLEAR     77  61  57 S8        30.00S
OSAGE BEACH    CLEAR     77  66  69 S6        29.97R
SPRINGFIELD    CLEAR     78  64  61 S12       29.99S
BRANSON        CLEAR     77  66  69 CALM      30.03S
NEVADA         CLEAR     73  63  68 S7        29.96R
JOPLIN         CLEAR     80  67  64 S15       29.96R
WEST PLAINS    PTCLDY    81  63  54 S8        30.05R

$$

IAZ060-094-KSZ022-034>040-054-083-096-NEZ052-066-093-210600-
...KANSAS...SOUTHEAST NEBRASKA AND IOWA...

CITY           SKY/WX    TMP DP  RH WIND       PRES   REMARKS
TOPEKA         PTCLDY    84  69  60 S13       29.86R
MANHATTAN      MOCLDY    86  66  51 S18G25    29.82R
EMPORIA        PTCLDY    80  69  69 S17G25    29.87S
CHANUTE        CLEAR     80  68  66 S14       29.92R
WICHITA        PTCLDY    82  65  56 S17       29.86R
OMAHA          CLEAR     80  72  76 SE13      29.78S
LINCOLN        MOCLDY    82  69  64 S13       29.77S
FALLS CITY     PTCLDY    81  70  69 S10       29.82R
LAMONI         CLEAR     79  72  79 S10       29.88R
DES MOINES     PTCLDY    77  73  87 SE6       29.85R

$$




USA.gov is the U.S. government's official web portal to all federal, state and local government web resources and services.